sat.trackr.live / text

‹ back to catalog

STARLINK-32102

NORAD 59699 · 2024-086T

PAYLOAD ACTIVE UNKNOWN

§ Identity

Operator
Country
US
Launch date
2024-05-08
Launch site
AFETR
Launch vehicle
Mass (kg)
RCS (m²)

Purposes: comms

External: N2YO · Heavens-Above · Gunter

§ Orbital elements

Epoch: 2026-05-24T22:19:03.760896Z

Period
94.26 min
Inclination
43.0017°
Eccentricity
0.0001443
Mean motion
15.27616995 rev/d
Perigee alt
481.9 km
Apogee alt
483.9 km
Semi-major
6,861.1 km
B*
5.9977e-4
RAAN
349.2024°
Arg perigee
269.1223°
Mean anomaly
90.9463°
Rev number
11,577

§ Raw data

STARLINK-321021 59699U 24086T   26144.92990464  .00016297  00000+0  59977-3 0  99922 59699  43.0017 349.2024 0001443 269.1223  90.9463 15.27616995115779

JSON: /api/v1/satellites/59699 · /tle

For live sub-satellite position, see the globe view (requires WebGL).

§ Visibility from observer

Set your observer location to see the next 7 days of passes ≥ 10°. The values pass through the URL so the page stays shareable.

No JS? Fill the form by hand. The geolocation button needs JavaScript.